Regional Weather Roundup
Issued by NWS

Home | Current Version | Previous Version | Graphics & Text | Print | Product List | Glossary Off
Versions: 1 2 3 4 5 6 7 8 9 10 11 12 13 14 15 16 17 18 19 20 21 22 23 24 25 26 27 28 29 30 31 32 33 34 35 36 37 38 39 40 41 42 43 44 45 46 47 48 49 50

000
ASUS43 KFSD 030502
RWRSD

WEATHER ROUNDUP FOR SOUTH DAKOTA
NATIONAL WEATHER SERVICE SIOUX FALLS SD
1200 AM CDT THU SEP 03 2015

NOTE: "FAIR" INDICATES FEW OR NO CLOUDS BELOW 12,000 FEET WITH NO
SIGNIFICANT WEATHER AND/OR OBSTRUCTIONS TO VISIBILITY.


SDZ001>005-009-010-012>017-030600-
NORTHWEST AND NORTH CENTRAL SOUTH DAKOTA

CITY           SKY/WX    TMP DP  RH WIND       PRES   REMARKS
BUFFALO          N/A     76  52  43 SE3       29.69S
FAITH            N/A     74  56  53 SE14      29.74S
MOBRIDGE       CLEAR     79  74  84 SE13      29.70F
$$

SDZ012>016-024>037-041>051-057-063-072>074-030600-
SOUTHWEST AND SOUTH CENTRAL SOUTH DAKOTA

CITY           SKY/WX    TMP DP  RH WIND       PRES   REMARKS
RAPID CTY ARPT CLEAR     64  52  64 CALM      29.80F
PIERRE         CLEAR     79  59  50 S7        29.71S
CUSTER         CLEAR     61  35  37 NW5       30.00F
ELLSWORTH AFB  CLEAR     70  53  54 SW8       29.80S
PHILIP         CLEAR     74  53  48 CALM      29.74S
PINE RIDGE     CLEAR     69  46  43 NW5       29.85S
WINNER         FAIR      82  56  40 S14       29.78S
$$

SDZ004>011-016>023-039-040-030600-
NORTHEAST SOUTH DAKOTA

CITY           SKY/WX    TMP DP  RH WIND       PRES   REMARKS
ABERDEEN       CLEAR     76  72  87 SE12      29.77S
WATERTOWN      CLEAR     75  71  87 SE10      29.84S
BROOKINGS      CLEAR     73  70  88 SE13      29.86F
$$

SDZ017-020-022-023-036>040-048>070-030600-
SOUTHEAST SOUTH DAKOTA

CITY           SKY/WX    TMP DP  RH WIND       PRES   REMARKS
SIOUX FALLS    PTCLDY    74  70  87 SE5       29.85S
HURON          CLEAR     75  72  90 SE12      29.77S
CHAMBERLAIN    CLEAR     76  67  73 S9        29.76S
MITCHELL       CLEAR     74  72  93 SE10      29.79S
YANKTON        CLEAR     72  70  94 CALM      29.81S
$$

ABBREVIATIONS USED IN REMARKS
   TC - TEMPERATURE IN CELSIUS
  WCI - WIND CHILL INDEX
   HX - HEAT INDEX
  VSB - VISIBILITY



USA.gov is the U.S. government's official web portal to all federal, state and local government web resources and services.